Regional Weather Roundup
Issued by NWS Charleston, SC

Current Version | Previous Version | Graphics & Text | Print | Product List | Glossary On
Versions: 1 2 3 4 5 6 7 8 9 10 11 12 13 14 15 16 17 18 19 20 21 22 23 24 25 26 27 28 29 30 31 32 33 34 35 36 37 38 39 40 41 42 43 44 45 46 47 48 49 50
000 ASUS42 KCHS 290513 RWRCHS REGIONAL WEATHER ROUNDUP NATIONAL WEATHER SERVICE CHARLESTON SC 100 AM EDT SUN MAY 29 2016 NOTE: "FAIR" INDICATES FEW OR NO CLOUDS BELOW 12,000 FEET WITH NO SIGNIFICANT WEATHER AND/OR OBSTRUCTIONS TO VISIBILITY. NOT ALL STATIONS ARE QUALITY CONTROLLED. USE DATA WITH CAUTION... ESPECIALLY DEWPOINT OBSERVATIONS. SCZ027-030-031-034>040-042>050-290600- ...SOUTHEAST SOUTH CAROLINA... CITY SKY/WX TMP DP RH WIND PRES REMARKS N CHARLESTON CLOUDY 71 69 93 N14 30.00F WATERFRONT PRK N/A 72 72 100 N9 29.98F MOUNT PLEASANT CLOUDY 72 72 100 N5 29.99F FOG JOHNS ISLAND HVY RAIN 72 72 100 CALM 29.98F VSB 3/4 PINOPOLIS N/A 73 70 88 NE13 29.97S MONCKS CORNER LGT RAIN 68 66 94 N9G17 30.02F SUMMERVILLE CLOUDY 70 70 100 N8 30.03F BEAUFORT MCAS LGT RAIN 69 67 93 NW12 30.01F BEAUFORT ARPT LGT RAIN 68 68 100 N14 30.01S HILTON HEAD IS LGT RAIN 70 70 100 N13G22 30.00S WALTERBORO RAIN 70 70 100 N8 30.03F ALLENDALE HVY RAIN 66 66 100 N6 30.08S ...SOUTHERN MIDLANDS AND PEE DEE... CITY SKY/WX TMP DP RH WIND PRES REMARKS GEORGETOWN RAIN 72 70 94 NE8 30.03F KINGSTREE RAIN 70 68 94 N6 30.05F ORANGEBURG RAIN 69 67 93 N6 30.08F FOG BARNWELL LGT RAIN 70 70 100 N3 30.11R AIKEN CLOUDY 66 64 94 N3 30.14R MANNING CLOUDY 68 68 100 N7 30.05F COLUMBIA LGT RAIN 72 68 87 CALM 30.09S SUMTER CLOUDY 70 68 94 NW10 30.05F FLORENCE CLOUDY 72 69 90 N9 30.07F MYRTLE BEACH CLOUDY 73 66 78 NE8 30.06S N MYRTLE BEACH CLOUDY 73 71 93 NE8 30.04F $$ GAZ063-065-086>088-099>101-113>116-118-119-134>141-150-290600- ...SOUTHEAST GEORGIA... CITY SKY/WX TMP DP RH WIND PRES REMARKS SAVANNAH ARPT HVY RAIN 69 67 93 NW8 30.04S FOG HUNTER AAF HVY RAIN 69 69 100 W7 30.01F FORT STEWART CLOUDY 69 65 85 CALM 30.04F STATESBORO RAIN 69 68 97 N6 30.08S SYLVANIA HVY RAIN 69 67 93 N3 30.09S CLAXTON MOCLDY 71 66 84 NW6 30.08F ...CSRA...CENTRAL AND FAR SOUTHEAST GEORGIA... CITY SKY/WX TMP DP RH WIND PRES REMARKS THOMSON CLOUDY 73 70 91 CALM 30.16R AUGUSTA-BUSH LGT RAIN 67 65 93 CALM 30.10R AUGUSTA-DANIEL LGT RAIN 68 64 87 CALM 30.11R SWAINSBORO FAIR 68 64 88 CALM 30.11S VIDALIA CLOUDY 70 63 78 NE3 30.09F EASTMAN FAIR 72 65 78 E6 30.12S HAZLEHURST FAIR 73 64 74 CALM 30.08S ALMA PTCLDY 71 64 78 CALM 30.08R WAYCROSS PTCLDY 69 66 89 NE3 30.08R JESUP FAIR 66 61 82 N3 30.07F BAXLEY CLOUDY 73 64 73 N3 30.08F BRUNSWICK CLOUDY 73 68 83 NW5 30.05F SAINT SIMONS PTCLDY 71 67 87 NW7 30.03F $$ SCZ027-028-034-036>038-045-046-048>050-GAZ119-141-290600- ...LAKE AND SUPPLEMENTAL COASTAL OBSERVATIONS... STATION/POSITION TIME TEMP WIND PRES WAVE SWELL AIR SEA DIR/SP/G HT/PER HT/PER/DIR (UTC) (F) (DEG/KT/KT) (MB) (FT/S) (FT/S/D) WINYAH BAY NOT AVBL LAKE MURRAY 0400 71 CALM / 2 1019.0F ACE BASIN NERRS NOT AVBL FORT PULASKI 0400 71 77 330/ 9/ 13 1016.7R SAPELO ISLAND 0400 72 320/ 10 1017.0S $$ ANZ835-935-AMZ111-154-330-350-352-354-370-450-454-472-290600- ...C-MAN AND BUOY OBSERVATIONS... STATION/POSITION TIME TEMP WIND PRES WAVE SWELL AIR SEA DIR/SP/G HT/PER HT/PER/DIR (UTC) (F) (DEG/KT/KT) (MB) (FT/S) (FT/S/D) BUOY 41004 0450 76 78 70/ 16/ 17 1014.0F 7/ 8 5/ 8 BUOY 41008 0450 73 76 330/ 19/ 21 1015.2F 6/ 6 FOLLY BEACH CMAN 0500 74 40/ 17/ 20 1015.3F CAPERS NEARSHORE 0408 75 75 50/ 19/ 25 1016.4F FRIPP NEARSHORE 0408 71 76 360/ 25/ 31 1014.3F STATION/POSITION TIME TEMP WIND PRES WAVE SWELL AIR SEA DIR/SP/G HT/PER HT/PER/DIR (UTC) (F) (DEG/KT/KT) (MB) (FT/S) (FT/S/D) 5E ST. MARYS GA 0401 78 N/A 6/ 8 FRYING PAN BUOY 0400 78 77 110/ 16/ 19 1016.6F BUOY 41025 0450 78 78 140/ 16/ 17 1019.7F 4/ 5 2/130/ 8 CAPE LOOKOUT NC 0400 75 100/ 9/ 9 1019.1F BUOY 41002 0450 75 75 130/ 14/ 17 1018.6F 5/ 7 2/100/ 7 BUOY 41010 0420 79 79 190/ 8/ 8 1016.9F ST AUGUSTINE FL 0500 73 79 300/ 4/ 5 1018.4R $$

USA.gov is the U.S. government's official web portal to all federal, state and local government web resources and services.